Location: Unspecified
(0.0000°N, 0.0000°E)
Time: 00:13:52
(UTC+00:00)

STARLINK-1265 - Visible Passes

Search period start: 18 May 2026 00:00
Search period end: 28 May 2026 00:00
Orbit: 454 x 462 km, 53.2° (Epoch: 17 May)

Date Brightness Start Highest point End Pass type
(mag) Time Alt. Az. Time Alt. Az. Time Alt. Az.
18 May 3.1 18:51:31 10° SSW 18:55:03 66° SE 18:58:35 10° NE visible
19 May 3.6 18:16:31 10° SSW 18:19:54 40° SE 18:23:16 10° NE visible
20 May 6.9 19:21:11 10° WNW 19:22:00 11° NW 19:22:50 10° NW visible
21 May 6.3 05:24:12 10° N 05:27:02 22° NE 05:29:52 10° ESE visible
21 May 6.5 18:44:29 10° W 18:46:45 16° NW 18:49:01 10° NNW visible
22 May 6.5 04:49:41 10° NNE 04:51:46 15° NE 04:53:51 10° E visible
24 May 3.5 05:14:55 10° NW 05:18:22 46° SW 05:21:51 10° SSE visible
25 May 3.1 04:39:30 11° NW 04:42:58 76° WSW 04:46:34 10° SSE visible
26 May 5.5 04:10:06 18° SE 04:10:06 18° SE 04:11:06 10° SE visible
